Weather History for KJAS - September, 2013

Change the Weather History Date:

Monday, September 16, 2013

  Actual Average (KLFK) Record (KLFK)
Temperature  
Mean Temperature 84 °F 77 °F  
Max Temperature 97 °F 89 °F 100 °F (1920)
Min Temperature 70 °F 66 °F 52 °F (1989)
Degree Days  
Heating Degree Days 0 0  
Month to date heating degree days 0  
Since 1 July heating degree days 0  
Cooling Degree Days 18 12  
Month to date cooling degree days 231  
Year to date cooling degree days 2254  
Growing Degree Days 34 (Base 50)    
Moisture  
Dew Point 67 °F    
Average Humidity 65    
Maximum Humidity 95    
Minimum Humidity 28    
Precipitation  
Precipitation 0.00 in 0.13 in 4.26 in (1987)
Month to date precipitation 2.29  
Year to date precipitation 32.88  
Snow  
Snow 0.00 in - - ()
Month to date snowfall  
Since 1 July snowfall  
Since 1 September snowfall  
Snow Depth -    
Sea Level Pressure  
Sea Level Pressure 30.05 in    
Wind  
Wind Speed 2 mph (East)    
Max Wind Speed 8 mph    
Max Gust Speed -    
Visibility 9 miles    
Events      
T = Trace of Precipitation, MM = Missing Value Source: NWS Daily Summary

Daily Weather History Graph

Daily Weather History Graph

Search for Another Location

Airport or City:

Trip Planner

Search our weather history database for the weather conditions in past years. The results will help you decide how hot, cold, wet, or windy it might be!

Date:

Astronomy

Sep. 16, 2013 Rise Set
Actual Time 7:01 AM CDT 7:20 PM CDT
Civil Twilight 6:36 AM CDT 7:44 PM CDT
Nautical Twilight 6:08 AM CDT 8:12 PM CDT
Astronomical Twilight 5:40 AM CDT 8:41 PM CDT
Moon 5:22 PM CDT (9/16) 3:58 AM CDT (9/16)
Length of Visible Light 13h 07m
Length of Day
12h 18m
Waxing Gibbous, 90% of the Moon is Illuminated
Sep 16
Waxing Gibbous
Sep 19
Full
Sep 26
Last Quarter
Oct 4
New
Oct 11
First Quarter

Hourly Weather History & Observations

Time (CDT) Temp. Heat Index Dew Point Humidity Pressure Visibility Wind Dir Wind Speed Gust Speed Precip Events Conditions
12:15 AM 78.1 °F - 73.2 °F 85% 30.06 in 10.0 mi Calm Calm - N/A   Clear
12:35 AM 76.6 °F - 72.7 °F 87% 30.06 in 10.0 mi Calm Calm - N/A   Clear
12:55 AM 75.9 °F - 72.1 °F 88% 30.06 in 10.0 mi Calm Calm - N/A   Clear
1:15 AM 76.1 °F - 72.5 °F 89% 30.06 in 10.0 mi Calm Calm - N/A   Clear
1:35 AM 76.1 °F - 72.5 °F 89% 30.05 in 7.0 mi Calm Calm - N/A   Clear
1:55 AM 75.7 °F - 72.3 °F 89% 30.05 in 10.0 mi Calm Calm - N/A   Clear
2:15 AM 74.7 °F - 72.0 °F 91% 30.05 in 10.0 mi Calm Calm - N/A   Clear
2:35 AM 73.9 °F - 71.6 °F 92% 30.05 in 7.0 mi Calm Calm - N/A   Clear
2:55 AM 73.4 °F - 71.1 °F 92% 30.05 in 10.0 mi Calm Calm - N/A   Clear
3:15 AM 73.6 °F - 71.1 °F 92% 30.05 in 10.0 mi Calm Calm - N/A   Clear
3:35 AM 73.4 °F - 71.1 °F 92% 30.05 in 7.0 mi Calm Calm - N/A   Clear
3:55 AM 73.2 °F - 71.1 °F 93% 30.05 in 7.0 mi Calm Calm - N/A   Clear
4:15 AM 73.0 °F - 70.9 °F 93% 30.05 in 7.0 mi Calm Calm - N/A   Clear
4:35 AM 72.5 °F - 70.5 °F 93% 30.05 in 10.0 mi Calm Calm - N/A   Clear
4:55 AM 72.5 °F - 70.3 °F 93% 30.05 in 7.0 mi Calm Calm - N/A   Clear
5:15 AM 72.3 °F - 70.3 °F 93% 30.05 in 7.0 mi Calm Calm - N/A   Clear
5:35 AM 72.0 °F - 70.3 °F 95% 30.05 in 7.0 mi Calm Calm - N/A   Clear
5:55 AM 71.8 °F - 70.0 °F 94% 30.05 in 10.0 mi Calm Calm - N/A   Clear
6:15 AM 72.0 °F - 70.0 °F 93% 30.05 in 10.0 mi Calm Calm - N/A   Clear
6:35 AM 72.0 °F - 69.8 °F 93% 30.06 in 7.0 mi Calm Calm - N/A   Clear
6:55 AM 71.6 °F - 69.6 °F 93% 30.06 in 7.0 mi Calm Calm - N/A   Clear
7:15 AM 71.2 °F - 69.4 °F 94% 30.07 in 5.0 mi Calm Calm - N/A   Clear
7:35 AM 70.9 °F - 69.4 °F 95% 30.07 in 5.0 mi Calm Calm - N/A   Clear
7:55 AM 71.8 °F - 70.3 °F 95% 30.07 in 7.0 mi Calm Calm - N/A   Clear
8:15 AM 73.8 °F - 71.6 °F 93% 30.08 in 7.0 mi Calm Calm - N/A   Clear
8:35 AM 75.9 °F - 72.3 °F 89% 30.09 in 10.0 mi Calm Calm - N/A   Clear
8:55 AM 77.4 °F - 73.2 °F 87% 30.09 in 10.0 mi ENE 3.5 mph - N/A   Clear
9:15 AM 79.9 °F - 74.1 °F 82% 30.09 in 10.0 mi ENE 4.6 mph - N/A   Clear
9:35 AM 81.9 °F 88.0 °F 74.3 °F 78% 30.09 in 10.0 mi East 5.8 mph - N/A   Clear
9:55 AM 82.9 °F 89.7 °F 74.3 °F 75% 30.09 in 10.0 mi East 4.6 mph - N/A   Clear
10:15 AM 84.4 °F 91.3 °F 73.6 °F 70% 30.09 in 10.0 mi East 5.8 mph - N/A   Clear
10:35 AM 86.0 °F 92.6 °F 72.3 °F 64% 30.10 in 10.0 mi ENE 6.9 mph - N/A   Clear
10:55 AM 87.6 °F 92.7 °F 70.3 °F 56% 30.10 in 10.0 mi ESE 5.8 mph - N/A   Clear
11:15 AM 87.6 °F 90.1 °F 66.6 °F 49% 30.10 in 10.0 mi East 5.8 mph - N/A   Clear
11:35 AM 88.3 °F 90.5 °F 65.7 °F 47% 30.10 in 10.0 mi East 5.8 mph - N/A   Clear
11:55 AM 89.8 °F 92.1 °F 66.0 °F 45% 30.09 in 10.0 mi East 4.6 mph - N/A   Clear
12:15 PM 90.9 °F 93.1 °F 65.7 °F 43% 30.09 in 10.0 mi SSE 5.8 mph - N/A   Clear
12:35 PM 91.8 °F 93.8 °F 64.9 °F 41% 30.08 in 10.0 mi SSE 3.5 mph - N/A   Clear
12:55 PM 92.8 °F 93.5 °F 62.1 °F 36% 30.07 in 10.0 mi East 6.9 mph - N/A   Clear
1:15 PM 94.6 °F 94.7 °F 60.3 °F 32% 30.06 in 10.0 mi East 6.9 mph - N/A   Clear
1:35 PM 95.0 °F 94.8 °F 59.5 °F 31% 30.06 in 10.0 mi East 5.8 mph - N/A   Clear
1:55 PM 95.9 °F 95.7 °F 60.1 °F 30% 30.04 in 10.0 mi North 5.8 mph - N/A   Clear
2:15 PM 96.3 °F 96.3 °F 60.1 °F 30% 30.04 in 10.0 mi Calm Calm - N/A   Clear
2:35 PM 96.3 °F 95.5 °F 58.5 °F 28% 30.03 in 10.0 mi East 3.5 mph - N/A   Clear
2:55 PM 95.5 °F 94.8 °F 58.5 °F 29% 30.02 in 10.0 mi ESE 4.6 mph - N/A   Clear
3:15 PM 96.1 °F 95.2 °F 58.1 °F 28% 30.01 in 10.0 mi East 8.1 mph - N/A   Clear
3:35 PM 95.9 °F 95.3 °F 58.5 °F 29% 30.01 in 10.0 mi ESE 8.1 mph - N/A   Clear
3:55 PM 95.4 °F 94.6 °F 58.5 °F 29% 30.01 in 10.0 mi ENE 6.9 mph - N/A   Clear
4:15 PM 95.2 °F 94.7 °F 59.5 °F 30% 30.00 in 10.0 mi ESE 4.6 mph - N/A   Clear
4:35 PM 95.0 °F 94.8 °F 59.9 °F 31% 30.00 in 10.0 mi ESE 3.5 mph - N/A   Clear
4:55 PM 96.1 °F 96.0 °F 60.3 °F 30% 30.00 in 10.0 mi East 5.8 mph - N/A   Clear
5:15 PM 97.5 °F 97.7 °F 59.9 °F 29% 29.99 in 10.0 mi ESE 6.9 mph - N/A   Clear
5:35 PM 96.4 °F 96.5 °F 59.9 °F 30% 29.99 in 10.0 mi ESE 8.1 mph - N/A   Clear
5:55 PM 94.6 °F 94.3 °F 59.5 °F 31% 29.99 in 10.0 mi ESE 4.6 mph - N/A   Clear
6:15 PM 93.7 °F 93.3 °F 59.7 °F 32% 30.00 in 10.0 mi ESE 5.8 mph - N/A   Clear
6:35 PM 92.7 °F 93.2 °F 61.9 °F 36% 30.00 in 10.0 mi SSE 4.6 mph - N/A   Clear
6:55 PM 91.4 °F 92.4 °F 63.5 °F 39% 30.00 in 10.0 mi SSE 4.6 mph - N/A   Clear
7:15 PM 90.5 °F 91.8 °F 63.7 °F 41% 30.00 in 10.0 mi Calm Calm - N/A   Clear
7:35 PM 89.4 °F 90.8 °F 64.2 °F 43% 30.00 in 10.0 mi Calm Calm - N/A   Clear
7:55 PM 87.8 °F 90.0 °F 65.8 °F 48% 30.01 in 10.0 mi Calm Calm - N/A   Clear
8:15 PM 84.9 °F 88.2 °F 68.0 °F 57% 30.01 in 10.0 mi Calm Calm - N/A   Clear
8:35 PM 84.6 °F 87.1 °F 66.9 °F 55% 30.02 in 10.0 mi Calm Calm - N/A   Clear
8:55 PM 83.1 °F 86.1 °F 67.8 °F 60% 30.03 in 10.0 mi Calm Calm - N/A   Clear
9:15 PM 83.3 °F 86.2 °F 67.5 °F 59% 30.04 in 10.0 mi Calm Calm - N/A   Clear
9:35 PM 81.1 °F 84.0 °F 68.2 °F 65% 30.05 in 10.0 mi Calm Calm - N/A   Clear
9:55 PM 79.9 °F - 68.7 °F 69% 30.06 in 10.0 mi Calm Calm - N/A   Clear
10:15 PM 79.2 °F - 69.1 °F 71% 30.07 in 10.0 mi Calm Calm - N/A   Clear
10:35 PM 78.3 °F - 69.3 °F 74% 30.07 in 10.0 mi Calm Calm - N/A   Clear
10:55 PM 77.9 °F - 69.8 °F 76% 30.07 in 10.0 mi Calm Calm - N/A   Clear
11:15 PM 77.2 °F - 70.3 °F 79% 30.07 in 10.0 mi Calm Calm - N/A   Clear
11:35 PM 76.5 °F - 70.7 °F 82% 30.07 in 10.0 mi Calm Calm - N/A   Clear
11:55 PM 75.6 °F - 70.2 °F 83% 30.07 in 10.0 mi Calm Calm - N/A   Clear